Charlottesville, VA

3:47 AM EST on January 19, 2017 (GMT -0500)
Charlottesville-Albemarle

Weather History for KCHO - April, 2014

Change the Weather History Date:

Thursday, April 3, 2014

  Actual Average Record
Temperature  
Mean Temperature 60 °F 52 °F  
Max Temperature 69 °F 64 °F 89 °F (1963)
Min Temperature 50 °F 40 °F 25 °F (1992)
Degree Days  
Heating Degree Days 5 13  
Month to date heating degree days 22 41  
Since 1 July heating degree days 4258 4045  
Cooling Degree Days 0 0  
Month to date cooling degree days 0 0  
Year to date cooling degree days 0 2  
Growing Degree Days 9 (Base 50)    
Moisture  
Dew Point 47 °F    
Average Humidity 69    
Maximum Humidity 93    
Minimum Humidity 45    
Precipitation  
Precipitation 0.02 in 0.12 in 2.82 in (1983)
Month to date precipitation 0.03 0.36  
Year to date precipitation 7.61 9.49  
Sea Level Pressure  
Sea Level Pressure 30.02 in    
Wind  
Wind Speed 3 mph (South)    
Max Wind Speed 13 mph    
Max Gust Speed 14 mph    
Visibility 10 miles    
Events Rain    
T = Trace of Precipitation, MM = Missing Value Source: NWS Daily Summary

Daily Weather History Graph

Daily Weather History Graph

Search for Another Location

Airport or City:

Trip Planner

Search our weather history database for the weather conditions in past years. The results will help you decide how hot, cold, wet, or windy it might be!

Date:

Astronomy

Apr. 03, 2014 Rise Set
Actual Time 6:55 AM EDT 7:38 PM EDT
Civil Twilight 6:29 AM EDT 8:05 PM EDT
Nautical Twilight 5:57 AM EDT 8:37 PM EDT
Astronomical Twilight 5:25 AM EDT 9:09 PM EDT
Moon 9:26 AM EDT (4/3) 11:53 PM EDT (4/3)
Length of Visible Light 13h 36m
Length of Day
12h 42m
Waxing Crescent, 17% of the Moon is Illuminated
Apr 3
Waxing Crescent
Apr 7
First Quarter
Apr 15
Full
Apr 22
Last Quarter
Apr 29
New

Hourly Weather History & Observations

Time (EDT) Temp. Dew Point Humidity Pressure Visibility Wind Dir Wind Speed Gust Speed Precip Events Conditions
12:53 AM 57.0 °F 44.1 °F 62% 30.14 in 10.0 mi West 4.6 mph - 0.00 in Rain Light Rain
1:53 AM 52.0 °F 48.9 °F 89% 30.09 in 10.0 mi Calm Calm - 0.02 in   Mostly Cloudy
2:53 AM 52.0 °F 48.9 °F 89% 30.07 in 10.0 mi Variable 3.5 mph - N/A   Mostly Cloudy
3:53 AM 53.1 °F 48.9 °F 86% 30.04 in 10.0 mi Calm Calm - N/A   Mostly Cloudy
4:53 AM 51.1 °F 48.0 °F 89% 30.04 in 10.0 mi Calm Calm - 0.00 in   Partly Cloudy
5:53 AM 52.0 °F 48.9 °F 89% 30.06 in 10.0 mi Calm Calm - N/A   Mostly Cloudy
6:53 AM 50.0 °F 48.0 °F 93% 30.07 in 10.0 mi Calm Calm - 0.00 in   Clear
7:53 AM 50.0 °F 48.0 °F 93% 30.08 in 10.0 mi Calm Calm - N/A   Clear
8:53 AM 54.0 °F 48.9 °F 83% 30.09 in 10.0 mi Calm Calm - N/A   Scattered Clouds
9:53 AM 57.0 °F 48.9 °F 74% 30.08 in 10.0 mi Calm Calm - N/A   Partly Cloudy
10:53 AM 62.1 °F 48.9 °F 62% 30.08 in 10.0 mi Calm Calm - N/A   Scattered Clouds
11:53 AM 64.0 °F 46.9 °F 54% 30.07 in 10.0 mi SE 4.6 mph - N/A   Mostly Cloudy
12:53 PM 64.0 °F 46.0 °F 52% 30.06 in 10.0 mi South 11.5 mph - N/A   Overcast
1:24 PM 63.0 °F 46.0 °F 54% 30.05 in 10.0 mi SW 12.7 mph - N/A   Overcast
1:53 PM 64.0 °F 45.0 °F 50% 30.02 in 10.0 mi SW 12.7 mph - N/A   Overcast
2:53 PM 66.0 °F 46.0 °F 48% 29.97 in 10.0 mi SE 4.6 mph - N/A   Clear
3:53 PM 68.0 °F 46.0 °F 45% 29.94 in 10.0 mi East 3.5 mph - N/A   Clear
4:53 PM 68.0 °F 46.0 °F 45% 29.93 in 10.0 mi South 5.8 mph - N/A   Clear
5:53 PM 68.0 °F 46.0 °F 45% 29.93 in 10.0 mi South 5.8 mph - N/A   Clear
6:53 PM 66.0 °F 45.0 °F 47% 29.91 in 10.0 mi SSE 6.9 mph - N/A   Clear
7:53 PM 64.0 °F 45.0 °F 50% 29.91 in 10.0 mi SE 6.9 mph - N/A   Clear
8:53 PM 62.1 °F 45.0 °F 53% 29.92 in 10.0 mi Calm Calm - N/A   Clear
9:53 PM 60.1 °F 46.0 °F 60% 29.94 in 10.0 mi NNE 3.5 mph - N/A   Clear
11:53 PM 57.9 °F 45.0 °F 62% 29.94 in 10.0 mi NW 3.5 mph - 0.00 in Rain Light Rain